Chennai, India

3:24 AM IST on May 27, 2017 (GMT +0530)
Chennai International

Weather History for VOMM - November, 2013

Change the Weather History Date:

Sunday, November 3, 2013

  Actual Average Record
Temperature  
Mean Temperature 82 °F -  
Max Temperature 89 °F 82 °F 91 °F (2012)
Min Temperature 75 °F 72 °F 35 °F (1997)
Cooling Degree Days 17    
Growing Degree Days 32 (Base 50)    
Moisture  
Dew Point 75 °F    
Average Humidity 82    
Maximum Humidity 95    
Minimum Humidity 60    
Precipitation  
Precipitation 0.39 in 0.50 in - ()
Sea Level Pressure  
Sea Level Pressure 29.88 in    
Wind  
Wind Speed 3 mph ()    
Max Wind Speed 14 mph    
Max Gust Speed 21 mph    
Visibility 3.8 miles    
Events Rain , Thunderstorm    
Averages and records for this station are not official NWS values.
T = Trace of Precipitation, MM = Missing Value Source: Averaged Metar Reports

Daily Weather History Graph

Daily Weather History Graph

Search for Another Location

Airport or City:

Trip Planner

Search our weather history database for the weather conditions in past years. The results will help you decide how hot, cold, wet, or windy it might be!

Date:

Astronomy

Nov. 03, 2013 Rise Set
Actual Time 6:03 AM IST 5:41 PM IST
Civil Twilight 5:41 AM IST 6:03 PM IST
Nautical Twilight 5:16 AM IST 6:29 PM IST
Astronomical Twilight 4:51 AM IST 6:54 PM IST
Moon 5:38 AM IST (11/3) 5:36 PM IST (11/3)
Length of Visible Light 12h 22m
Length of Day
11h 38m
Waning Crescent, 0% of the Moon is Illuminated
Nov 3
Waning Crescent
Nov 3
New
Nov 10
First Quarter
Nov 17
Full
Nov 26
Last Quarter

Hourly Weather History & Observations

Time (IST) Temp. Heat Index Dew Point Humidity Pressure Visibility Wind Dir Wind Speed Gust Speed Precip Events Conditions
12:10 AM 77.0 °F - 75.2 °F 94% 29.89 in 1.9 mi Calm Calm - N/A Rain Rain
12:40 AM 77.0 °F - 75.2 °F 94% 29.86 in 3.7 mi Calm Calm - N/A   Partly Cloudy
1:10 AM 77.0 °F - 75.2 °F 94% 29.86 in 3.7 mi Calm Calm - N/A   Partly Cloudy
1:40 AM 77.0 °F - 75.2 °F 94% 29.86 in 3.7 mi Calm Calm - N/A   Scattered Clouds
2:10 AM 77.0 °F - 75.2 °F 94% 29.83 in 3.7 mi West 4.6 mph - N/A   Scattered Clouds
2:30 AM 78 °F - 76 °F 93% 29.87 in 2 mi Calm Calm - -   Partly Cloudy
2:40 AM 77.0 °F - 75.2 °F 94% 29.83 in 3.7 mi Calm Calm - N/A   Mostly Cloudy
3:10 AM 77.0 °F - 75.2 °F 94% 29.83 in 3.7 mi Calm Calm - N/A   Scattered Clouds
3:40 AM 77.0 °F - 75.2 °F 94% 29.83 in 3.7 mi Calm Calm - N/A   Scattered Clouds
4:10 AM 77.0 °F - 75.2 °F 94% 29.83 in 3.7 mi Calm Calm - N/A   Scattered Clouds
4:40 AM 77.0 °F - 75.2 °F 94% 29.83 in 3.7 mi Calm Calm - N/A   Scattered Clouds
5:10 AM 77.0 °F - 75.2 °F 94% 29.83 in 3.7 mi Calm Calm - N/A   Scattered Clouds
5:30 AM 77 °F - 76 °F 95% 29.87 in 2 mi Calm Calm - -   Partly Cloudy
5:40 AM 77.0 °F - 75.2 °F 94% 29.86 in 3.7 mi Calm Calm - N/A   Scattered Clouds
6:10 AM 77.0 °F - 75.2 °F 94% 29.86 in 3.7 mi Calm Calm - N/A   Partly Cloudy
6:40 AM 77.0 °F - 75.2 °F 94% 29.86 in 3.7 mi Calm Calm - N/A   Partly Cloudy
7:10 AM 78.8 °F - 75.2 °F 89% 29.89 in 3.7 mi NNW 3.5 mph - N/A   Scattered Clouds
7:40 AM 80.6 °F 87.1 °F 77.0 °F 89% 29.89 in 4.3 mi NNW 4.6 mph - N/A   Scattered Clouds
8:10 AM 82.4 °F 90.9 °F 77.0 °F 84% 29.92 in 4.3 mi NNW 2.3 mph - N/A   Scattered Clouds
8:30 AM 82 °F - 78 °F 85% 29.96 in 6 mi Calm Calm - -   Partly Cloudy
8:40 AM 82.4 °F 90.9 °F 77.0 °F 84% 29.92 in 5.0 mi North 4.6 mph - N/A   Scattered Clouds
9:10 AM 84.2 °F 94.1 °F 77.0 °F 79% 29.92 in 5.0 mi North 5.8 mph - N/A   Scattered Clouds
9:40 AM 84.2 °F 92.3 °F 75.2 °F 74% 29.92 in 5.0 mi NE 5.8 mph - N/A   Scattered Clouds
10:10 AM 86.0 °F 95.1 °F 75.2 °F 70% 29.92 in 5.0 mi NE 9.2 mph - N/A   Scattered Clouds
11:10 AM 84.2 °F 92.3 °F 75.2 °F 74% 29.89 in 5.0 mi ENE 11.5 mph - N/A   Scattered Clouds
11:30 AM 87 °F - 77 °F 65% 29.93 in 6 mi ESE 4.6 mph - -   Mostly Cloudy
11:40 AM 87.8 °F 97.6 °F 75.2 °F 66% 29.89 in 5.0 mi ENE 9.2 mph 20.7 mph N/A   Scattered Clouds
12:10 PM 87.8 °F 97.6 °F 75.2 °F 66% 29.86 in 5.6 mi ENE 9.2 mph 20.7 mph N/A   Scattered Clouds
12:40 PM 87.8 °F 95.6 °F 73.4 °F 62% 29.86 in 5.6 mi ENE 9.2 mph 20.7 mph N/A   Scattered Clouds
1:10 PM 87.8 °F 95.6 °F 73.4 °F 62% 29.86 in 5.6 mi NE 11.5 mph - N/A   Partly Cloudy
1:40 PM 87.8 °F 95.6 °F 73.4 °F 62% 29.83 in 4.3 mi NE 11.5 mph - N/A   Partly Cloudy
2:10 PM 87.8 °F 95.6 °F 73.4 °F 62% 29.83 in 4.3 mi NE 11.5 mph - N/A   Partly Cloudy
2:30 PM 88 °F - 76 °F 60% 29.85 in 6 mi ENE 6.9 mph - -   Mostly Cloudy
2:40 PM 87.8 °F 97.6 °F 75.2 °F 66% 29.80 in 4.3 mi ENE 13.8 mph - N/A   Scattered Clouds
3:10 PM 86.0 °F 93.4 °F 73.4 °F 66% 29.83 in 4.3 mi NE 11.5 mph - N/A   Scattered Clouds
3:40 PM 86.0 °F 95.1 °F 75.2 °F 70% 29.83 in 4.3 mi NE 11.5 mph - N/A   Scattered Clouds
4:10 PM 86.0 °F 93.4 °F 73.4 °F 66% 29.83 in 4.3 mi ENE 11.5 mph - N/A   Scattered Clouds
4:40 PM 84.2 °F 90.9 °F 73.4 °F 70% 29.83 in 3.7 mi ENE 11.5 mph - N/A   Scattered Clouds
5:10 PM 82.4 °F 88.2 °F 73.4 °F 74% 29.83 in 3.7 mi NE 9.2 mph - N/A   Scattered Clouds
5:30 PM 84 °F - 75 °F 67% 29.87 in 2 mi NE 3.5 mph - -   Scattered Clouds
5:40 PM 82.4 °F 89.5 °F 75.2 °F 79% 29.83 in 3.7 mi NNE 6.9 mph - N/A   Scattered Clouds
6:10 PM 82.4 °F 89.5 °F 75.2 °F 79% 29.86 in 3.7 mi NE 6.9 mph - N/A   Scattered Clouds
7:10 PM 77.0 °F - 73.4 °F 89% 29.89 in 2.5 mi North 4.6 mph - N/A Rain , Thunderstorm Light Thunderstorms and Rain
8:10 PM 78.8 °F - 75.2 °F 89% 29.92 in 2.5 mi NNW 2.3 mph - N/A   Light Drizzle
8:30 PM 79 °F - 77 °F 92% 29.95 in 2 mi Calm Calm - -   Partly Cloudy
8:40 PM 78.8 °F - 75.2 °F 89% 29.92 in 2.5 mi NNE 2.3 mph - N/A   Light Drizzle
9:10 PM 78.8 °F - 77.0 °F 94% 29.92 in 2.5 mi NE 4.6 mph - N/A   Light Drizzle
9:40 PM 78.8 °F - 75.2 °F 89% 29.92 in 2.5 mi ENE 5.8 mph - N/A   Haze
10:10 PM 78.8 °F - 75.2 °F 89% 29.92 in 2.5 mi North 4.6 mph - N/A   Haze
10:40 PM 78.8 °F - 75.2 °F 89% 29.92 in 2.5 mi Calm Calm - N/A   Haze
11:10 PM 78.8 °F - 75.2 °F 89% 29.92 in 2.5 mi Calm Calm - N/A   Haze
11:30 PM 79 °F - 77 °F 91% 29.95 in 2 mi Calm Calm - -   Partly Cloudy
11:40 PM 78.8 °F - 75.2 °F 89% 29.92 in 2.5 mi Calm Calm - N/A   Light Drizzle